Theta_e
314 314 314 314 313 312 311 310 308 307 307 306 305 305 304 305 305 305 305 307 308 308 308 309 309 308 308 308 309 309 312 316 317 319 319 314 313 313 313 313 313 313 314 314 313 313 314 314 313 312 315 317 313 314 313 313 328 344 339 332 321 317 318 318 320 318 319 321 318 315 316 318 315 314 311 311 316 316 315 314 314 313 310 311 312 312 317 324
313 313 313 313 313 312 312 310 309 307 306 306 304 305 305 304 305 305 306 306 307 308 308 308 308 308 308 309 309 310 314 317 316 318 317 313 313 313 313 313 313 314 314 314 314 314 316 317 313 312 318 318 312 315 317 312 322 339 337 329 322 322 318 316 321 317 316 318 318 316 315 317 316 315 312 313 317 313 317 317 314 318 314 312 312 313 318 324
312 312 312 312 311 312 312 310 310 308 306 306 305 305 305 305 305 306 306 306 307 307 308 308 308 308 308 309 309 309 314 316 315 315 314 312 313 313 313 313 313 314 314 314 315 313 315 316 311 313 322 319 314 319 323 317 316 326 334 330 323 325 319 313 318 319 317 316 318 316 313 316 315 314 312 314 318 313 320 323 318 322 319 315 313 311 316 320
311 311 310 310 310 311 312 311 311 309 308 307 306 306 306 306 306 306 307 306 307 307 307 307 307 308 308 309 309 310 314 317 315 313 312 313 313 313 312 313 313 314 315 315 315 314 313 312 310 316 321 318 321 323 321 318 316 319 326 326 319 319 318 315 318 318 317 315 318 318 314 315 314 313 314 315 317 315 320 322 322 325 321 318 314 310 313 315
310 310 309 309 309 309 310 311 310 310 310 309 307 307 306 307 306 306 307 307 307 307 307 307 307 308 308 309 309 310 314 317 315 313 313 313 313 313 313 313 314 315 315 315 314 314 312 311 313 322 321 319 327 326 317 314 317 318 317 318 317 316 315 316 318 316 315 315 319 318 314 315 313 314 317 317 317 319 319 316 319 322 317 316 313 310 311 311
310 309 309 309 308 309 309 309 310 310 311 309 307 307 307 307 307 306 307 308 307 307 307 308 307 308 308 309 310 310 313 314 314 314 312 313 313 312 313 312 314 315 315 315 314 313 314 315 318 325 324 321 321 320 317 313 315 319 316 314 317 317 315 316 318 316 316 317 318 317 314 315 315 315 316 316 317 317 313 310 313 315 311 311 311 309 312 310
310 309 310 309 308 309 308 308 308 309 310 309 308 307 307 307 307 307 307 307 307 307 307 308 308 309 309 310 312 314 315 314 313 314 313 313 313 313 312 313 314 316 315 314 314 315 318 321 322 323 324 320 316 316 317 315 319 323 318 316 317 316 316 318 317 318 319 318 319 317 313 314 317 315 313 314 316 313 309 306 307 308 308 309 311 310 310 309
309 309 310 309 308 308 308 308 307 308 309 309 308 307 307 307 308 308 307 307 307 307 307 308 308 309 310 310 314 317 316 316 315 315 314 313 313 313 312 314 315 315 315 313 313 316 319 320 318 319 321 318 315 316 314 316 322 323 317 317 317 315 318 317 317 319 319 317 316 315 314 316 317 313 314 317 315 311 308 306 306 307 308 310 314 312 307 307
310 309 309 308 307 307 306 307 307 307 309 309 308 307 307 307 307 308 308 307 307 308 308 309 309 310 311 310 313 315 314 315 317 315 313 312 313 313 313 314 315 315 314 314 313 314 317 318 316 316 318 316 315 316 316 317 319 319 318 319 318 316 317 316 316 318 317 316 314 315 317 317 314 312 315 318 313 310 309 310 310 311 313 314 315 310 306 307
310 310 309 308 307 307 308 308 307 307 308 309 308 307 307 307 307 308 308 307 307 308 308 310 310 311 312 311 312 313 314 316 317 315 313 313 313 312 314 315 315 316 314 314 313 313 315 316 314 313 317 317 315 315 315 316 316 317 318 318 318 318 319 316 316 317 315 315 315 315 318 317 312 313 317 317 311 310 313 313 311 314 316 314 312 308 306 306
310 310 310 309 308 308 309 309 309 309 310 309 308 307 306 307 307 307 308 307 307 308 309 310 311 312 312 313 314 314 315 317 316 315 313 313 313 312 315 315 315 316 314 314 313 313 314 313 311 311 316 315 315 316 314 314 314 315 317 317 319 321 319 316 315 315 314 314 316 316 316 316 311 314 320 317 310 311 315 315 312 315 316 312 312 308 305 305
310 310 310 310 310 309 309 309 309 310 310 309 308 307 307 307 308 308 307 308 308 308 310 310 311 313 311 312 316 316 317 318 316 315 313 313 314 314 314 315 316 316 316 314 312 313 313 313 313 315 317 314 316 317 314 313 313 315 317 317 322 327 321 314 315 315 314 314 316 315 315 318 315 315 318 313 309 311 314 315 313 315 315 312 312 309 305 304
311 310 310 310 310 310 310 310 310 311 311 310 308 308 307 307 308 308 307 308 309 309 310 311 312 313 311 311 314 314 316 317 315 314 314 314 314 314 315 315 315 315 316 314 312 313 313 313 314 316 316 318 318 313 314 316 314 316 316 317 323 329 323 315 314 314 313 315 315 315 317 326 326 319 315 310 309 312 313 315 314 314 313 311 311 310 308 304
311 310 310 310 310 310 310 310 311 312 312 310 308 308 308 307 308 309 309 308 309 310 311 311 312 312 310 312 313 313 315 316 316 315 314 315 314 315 315 315 316 315 314 314 313 313 314 313 313 315 312 316 316 311 321 325 321 319 313 322 328 320 325 323 315 314 313 314 314 314 319 326 329 322 315 310 309 312 314 314 312 313 312 311 310 310 309 305
311 310 311 311 310 310 310 309 311 312 311 309 308 308 308 308 308 309 310 310 310 311 311 312 313 313 314 313 313 314 315 316 317 315 314 315 315 315 315 315 314 314 313 313 313 313 313 313 315 318 313 313 316 316 328 329 329 328 314 326 331 317 331 333 314 315 316 313 312 315 321 322 323 320 313 309 309 311 314 313 311 312 311 310 310 308 309 305
312 311 311 312 311 311 311 309 309 310 309 308 307 308 309 308 308 310 311 311 312 312 312 313 312 313 315 314 313 315 315 316 317 315 315 315 314 315 314 313 313 313 313 312 314 314 313 316 315 314 314 315 322 331 336 327 331 336 320 323 332 321 328 329 315 316 317 314 312 313 320 323 321 316 310 308 310 311 312 312 311 311 310 309 309 307 307 306
313 312 312 312 312 312 311 310 309 308 308 308 307 309 310 310 310 311 312 313 315 314 313 314 311 310 311 311 315 317 315 315 316 315 315 315 314 314 312 313 312 311 314 312 313 314 312 317 315 313 319 320 323 333 332 324 327 331 321 320 329 324 322 324 323 318 313 315 315 313 316 320 320 316 310 309 309 311 312 312 311 310 309 308 307 307 306 306
313 313 312 312 312 312 311 311 310 308 307 307 308 311 311 312 312 312 314 315 315 312 311 313 310 311 312 310 314 317 314 314 316 316 315 315 314 313 313 312 311 311 316 316 313 315 314 319 321 321 324 321 321 327 324 326 332 329 324 323 326 322 319 323 326 318 313 315 316 315 315 317 317 315 313 310 309 311 311 310 310 309 309 308 308 307 306 306
314 313 313 312 312 312 312 311 310 308 307 308 311 312 311 313 314 314 315 314 313 310 311 313 312 313 314 312 315 315 314 314 315 315 314 316 313 312 314 311 313 315 318 319 314 315 320 322 323 322 323 321 320 322 323 330 334 330 332 335 330 325 323 326 327 322 316 314 317 317 316 316 316 315 315 312 309 309 310 309 310 310 309 308 308 306 305 305
314 313 313 313 312 312 311 311 310 308 307 311 313 310 310 315 313 312 316 317 317 313 312 315 313 313 314 315 317 315 315 314 314 315 314 314 313 313 314 311 317 319 317 323 317 315 323 324 323 324 325 324 321 320 321 325 326 326 331 332 329 326 326 327 325 323 316 314 321 320 315 316 315 315 315 312 309 309 309 309 309 310 309 308 308 307 305 305
313 314 314 313 313 312 311 311 310 307 308 313 313 310 312 315 311 311 317 318 315 310 313 315 312 311 312 314 315 314 316 316 313 314 314 313 313 313 315 314 319 319 318 325 319 315 322 324 324 327 323 321 321 318 318 321 321 322 324 323 324 325 324 323 320 320 316 315 323 322 317 316 315 314 313 311 312 312 310 309 309 309 309 308 308 307 305 304
313 313 314 313 313 312 311 311 309 307 309 313 313 313 315 314 312 313 314 315 315 311 313 314 312 313 313 312 315 314 317 321 316 315 314 312 313 313 316 318 320 320 319 320 319 318 321 323 323 321 318 318 320 316 315 318 317 319 323 320 322 324 322 323 321 318 315 315 324 326 319 318 316 315 314 313 313 312 310 310 309 310 309 308 308 307 305 305
313 313 313 313 312 312 311 310 309 309 311 313 312 313 315 315 315 313 311 315 319 315 314 315 314 317 316 313 314 314 317 322 321 318 314 312 314 315 316 318 319 320 319 318 322 322 322 326 322 317 318 320 320 317 316 317 317 320 323 322 324 324 322 325 324 319 317 316 320 323 319 317 317 316 316 315 314 314 313 312 310 309 310 309 308 307 306 305
313 313 313 313 312 311 310 310 310 310 311 312 312 313 316 316 316 314 314 315 318 317 316 314 312 315 318 314 313 316 317 318 319 317 314 312 315 315 315 318 319 320 319 319 321 321 322 322 317 316 319 320 321 320 319 320 322 323 322 322 324 325 323 324 324 323 325 322 319 322 323 324 324 321 321 319 317 317 314 314 313 310 310 309 308 308 306 304
313 313 312 312 311 310 310 310 312 312 311 311 312 312 315 316 315 314 314 313 314 316 314 311 312 315 315 312 314 317 316 316 319 316 312 312 315 314 315 317 319 320 318 318 317 318 320 317 316 320 318 318 322 322 323 324 324 326 324 322 321 323 324 322 323 323 327 330 323 319 326 336 335 331 330 327 326 325 317 314 315 312 310 310 310 309 306 304
314 313 312 312 311 310 311 312 313 312 312 311 310 312 316 316 316 313 313 315 313 314 313 310 314 315 312 313 315 315 315 316 316 313 312 312 313 314 316 316 316 318 318 317 317 318 319 315 319 328 323 321 321 322 326 323 320 325 326 323 320 320 321 321 323 323 328 332 321 317 327 334 330 329 331 331 333 332 322 317 316 313 311 310 309 308 306 304
316 314 312 312 311 310 312 313 312 312 314 312 309 312 316 317 316 312 312 317 313 314 316 313 312 312 313 314 313 312 314 316 313 312 312 312 313 313 316 317 314 316 316 317 317 318 318 316 319 325 326 325 322 323 324 319 322 328 323 321 320 318 321 324 324 323 327 328 322 322 328 327 326 327 328 327 326 327 324 321 318 314 312 310 308 307 305 303
317 315 313 313 311 311 312 313 312 312 313 312 310 314 318 316 314 311 311 314 311 313 317 314 310 311 313 312 311 314 314 315 316 314 311 311 313 314 316 318 316 316 317 317 317 316 318 321 320 320 323 324 324 328 324 318 323 325 318 319 321 321 326 328 328 327 325 324 326 326 323 325 331 331 327 322 322 327 328 323 321 319 314 308 307 307 304 303
318 316 314 313 311 310 313 314 312 311 312 312 312 315 318 314 312 312 312 311 312 315 315 314 312 312 313 311 312 317 315 315 317 314 311 311 312 314 316 317 316 316 315 315 316 317 318 319 318 319 320 322 326 327 321 319 321 318 315 320 322 323 326 329 331 331 328 327 328 327 324 326 330 329 326 322 325 330 326 322 322 320 313 308 307 306 304 302
318 317 316 314 312 310 312 314 313 312 312 313 314 315 316 315 312 310 310 310 314 318 314 313 315 314 314 313 313 316 316 316 316 313 314 314 314 315 314 314 318 321 317 316 319 320 318 314 314 319 320 321 324 320 316 320 319 316 321 327 328 329 329 329 329 327 329 329 328 329 327 325 327 331 329 324 325 327 325 328 328 321 313 308 306 305 303 302
319 318 316 315 312 311 312 314 314 313 312 313 315 315 315 318 316 309 310 310 312 317 314 314 315 314 314 314 315 316 316 317 315 314 316 316 316 318 316 315 319 323 321 319 321 321 318 316 317 319 318 320 324 321 316 316 316 321 332 333 330 331 329 328 328 326 330 330 325 323 321 321 326 331 331 326 324 323 322 327 330 326 320 311 305 304 303 301
319 319 317 315 313 311 312 314 314 313 314 315 316 315 313 316 316 312 312 310 312 318 318 318 317 315 315 315 315 316 318 318 315 314 317 317 316 317 316 317 318 320 321 320 320 320 320 323 322 317 315 319 326 325 319 316 317 324 331 329 327 330 329 330 330 326 328 325 318 317 320 321 322 325 327 327 325 324 320 319 320 322 322 314 305 303 302 301
320 319 317 316 314 312 312 314 313 314 315 315 316 317 314 314 314 313 313 311 314 318 319 320 318 315 315 315 316 315 316 318 316 315 317 317 318 316 316 319 319 320 323 319 318 321 322 323 321 317 317 320 322 323 323 321 321 323 326 327 328 329 330 336 333 325 325 323 315 314 320 323 323 324 323 321 322 324 319 315 316 317 317 314 307 303 302 301
319 319 317 316 315 313 312 313 313 315 315 315 316 318 315 314 314 313 312 311 317 320 320 320 317 314 314 318 318 315 315 318 316 316 317 317 318 317 317 319 317 321 327 320 318 322 321 321 322 319 320 321 319 319 325 325 320 321 323 324 326 329 333 337 334 330 330 327 318 314 320 328 329 326 321 318 321 323 318 314 312 311 310 309 306 302 301 300
319 319 317 316 315 313 312 313 314 315 315 315 318 318 314 313 314 315 313 313 321 324 321 318 317 315 316 320 320 315 316 318 316 317 319 318 318 317 317 317 315 320 324 318 319 321 319 323 325 319 318 319 318 320 325 324 320 320 321 322 325 328 329 327 324 323 324 326 323 318 322 328 326 322 319 319 320 321 318 313 312 311 307 306 305 302 301 300
319 318 317 315 314 313 312 312 314 315 315 316 317 316 314 314 316 317 316 317 323 324 319 319 321 320 317 319 320 316 316 320 318 318 319 318 319 318 316 317 315 316 316 315 322 324 321 323 321 316 317 318 316 319 322 321 322 320 319 323 322 319 323 325 320 315 316 323 325 322 324 326 323 321 320 318 320 320 319 316 313 311 307 307 305 302 300 300
317 316 316 315 314 314 313 312 314 315 315 316 316 316 315 316 318 318 318 319 319 320 320 320 321 321 319 319 321 318 317 320 318 318 319 318 319 319 317 318 317 314 314 318 323 323 324 325 319 316 319 314 311 317 320 317 319 322 324 324 319 317 323 327 325 323 323 327 327 322 324 325 324 325 321 315 316 320 321 320 314 309 308 307 305 302 301 300
316 315 315 315 314 314 313 312 315 315 315 315 315 316 315 315 318 319 319 319 318 319 321 319 318 320 321 320 321 319 317 320 318 318 319 318 319 319 316 318 319 315 314 317 319 321 322 322 320 315 317 314 311 317 322 316 314 320 324 321 321 326 328 324 325 330 329 329 330 325 321 321 321 324 323 318 320 325 321 318 316 314 310 306 303 302 301 299
316 315 317 316 315 314 313 313 315 316 316 315 314 316 316 315 317 320 320 319 319 319 319 318 318 320 321 320 321 319 317 319 318 317 320 318 318 320 316 317 319 316 315 315 317 322 322 319 321 314 312 315 315 317 323 320 314 315 317 316 320 326 326 323 324 327 328 328 329 327 323 322 322 322 324 321 323 330 326 321 322 318 309 304 303 302 301 299
315 316 318 316 315 315 313 313 316 318 316 315 314 315 316 315 315 317 318 318 320 319 316 318 322 322 321 319 319 320 318 319 317 317 319 318 318 320 316 316 320 317 316 315 316 322 321 317 322 317 311 316 320 320 321 321 317 317 318 318 319 319 320 323 322 322 327 329 331 329 325 326 326 323 324 322 322 326 327 325 324 316 308 304 302 301 300 299
315 317 318 316 315 315 314 314 317 319 317 314 313 314 315 315 316 316 316 316 319 320 317 319 323 322 321 319 319 320 319 319 318 317 319 317 317 320 317 317 321 319 316 316 316 320 321 320 325 323 316 319 323 319 315 317 318 318 319 320 319 318 319 323 322 320 321 324 329 329 325 326 328 321 319 320 321 321 319 318 320 316 310 306 302 301 301 299
316 316 316 315 315 314 314 316 317 318 317 313 313 313 314 316 317 316 315 315 317 319 319 320 321 320 320 319 319 320 320 319 318 317 319 318 316 319 319 317 319 318 316 317 317 318 322 324 327 325 320 319 319 313 310 313 316 315 318 321 320 318 319 324 325 322 320 320 321 323 325 324 321 315 316 320 321 319 316 316 318 316 311 307 303 301 300 299
315 315 315 314 314 314 315 317 317 316 315 314 313 314 314 316 317 317 316 315 315 318 320 322 322 319 318 320 320 319 319 319 318 317 319 319 316 319 321 318 317 316 316 319 318 318 321 323 323 324 322 319 318 314 311 312 314 315 319 321 320 318 318 322 324 321 323 323 320 321 325 321 316 316 318 319 319 317 315 314 316 314 312 308 303 301 301 299
314 315 315 314 314 314 316 317 316 313 313 314 314 314 314 315 316 317 317 316 315 318 319 320 321 320 319 322 321 319 319 320 319 317 318 320 318 317 320 319 317 316 317 319 319 317 319 322 323 324 325 323 322 319 315 313 314 318 321 319 317 318 318 320 320 319 321 324 322 323 325 321 322 323 320 318 319 320 318 315 313 314 313 309 303 301 300 300
315 315 315 314 313 314 317 317 316 313 313 313 314 314 315 315 315 316 317 316 316 318 319 320 322 321 321 322 320 318 319 319 319 319 318 320 319 315 317 319 318 316 316 319 319 316 320 323 322 321 323 324 323 324 322 318 315 317 321 318 315 317 319 319 320 320 321 322 321 322 322 321 324 324 320 319 321 322 323 320 315 312 310 307 304 301 300 299
314 314 314 314 314 315 316 316 316 314 312 313 314 314 314 315 315 315 317 318 317 317 320 322 322 321 322 322 321 321 321 319 320 321 319 321 322 317 315 316 317 317 317 318 319 321 325 325 320 319 322 321 321 324 323 320 318 318 320 318 316 317 317 318 320 321 322 322 320 321 321 321 322 322 321 324 325 325 326 324 319 314 310 307 304 301 300 299
312 313 315 315 315 316 316 316 316 315 313 313 313 313 313 314 315 316 316 317 318 318 318 321 321 321 322 323 322 323 322 320 320 321 319 320 321 316 313 312 315 316 316 317 319 322 326 325 321 321 322 318 322 326 322 320 320 320 319 318 317 316 316 318 320 321 323 324 322 321 321 321 321 320 322 324 326 326 326 325 322 318 312 307 304 302 301 300
313 313 313 314 315 316 317 317 317 316 314 313 313 313 313 313 314 316 316 316 318 319 319 320 321 321 322 322 322 323 323 322 321 320 319 320 320 317 314 313 313 314 314 314 317 321 324 323 322 324 322 319 323 325 321 320 320 319 319 319 317 316 317 317 318 320 322 323 322 323 325 323 320 319 320 320 320 321 321 320 318 315 310 306 304 303 302 300
313 314 314 313 314 315 316 316 316 317 316 314 313 313 313 313 314 315 315 316 317 318 319 320 320 320 320 321 322 323 323 323 322 321 319 321 321 320 319 318 316 314 313 315 316 318 321 322 322 323 323 321 322 323 320 319 319 318 318 318 317 316 317 317 317 318 319 320 320 322 325 323 319 320 321 319 318 317 316 316 315 313 311 308 306 304 302 300
309 312 312 313 313 314 315 315 315 316 316 315 315 314 313 313 314 314 315 316 317 317 318 319 319 319 319 320 321 322 322 322 323 322 321 319 319 319 320 322 321 315 313 316 315 313 316 322 321 321 323 322 321 321 319 318 319 320 319 318 316 316 316 316 316 317 318 319 318 319 322 320 318 320 320 319 319 317 316 316 315 314 311 308 306 305 302 300
305 305 306 310 313 313 313 314 314 314 315 314 315 315 314 314 314 314 314 315 316 317 317 318 319 318 318 319 320 321 320 320 321 322 321 319 318 319 317 317 319 317 313 315 315 313 315 321 320 320 323 323 321 321 319 316 317 319 320 319 316 315 315 315 316 317 317 318 318 319 320 319 318 320 320 320 320 318 316 316 314 312 309 307 308 306 302 301
304 303 303 307 311 311 312 313 314 313 313 313 314 314 314 315 314 314 314 315 315 316 316 317 318 318 319 319 319 319 319 320 321 321 321 320 319 318 315 315 319 319 315 314 316 315 316 319 320 321 323 323 321 320 317 316 318 320 321 319 317 314 315 315 315 316 316 317 318 319 319 317 318 321 321 319 319 317 315 315 313 311 308 306 306 306 303 302
Wind_Speed
7 6 5 3 3 3 5 5 6 7 7 7 8 7 7 7 7 7 8 8 7 6 6 5 4 4 5 4 4 5 4 1 1 4 3 2 4 5 5 5 5 6 5 5 7 3 4 6 10 12 6 3 5 3 3 3 3 5 4 4 3 3 3 5 7 7 4 4 5 3 2 7 4 2 2 2 7 4 3 5 3 5 4 2 3 3 7 14
7 6 5 4 3 3 4 5 5 7 7 7 8 8 7 8 8 8 8 8 7 7 6 5 4 4 5 4 4 5 3 0 2 3 4 5 6 6 5 5 6 7 6 7 9 8 5 5 8 10 6 3 4 3 3 3 4 4 3 4 3 5 3 4 7 6 3 4 5 2 2 5 5 5 3 1 2 2 2 3 4 5 3 2 4 6 10 15
7 7 5 4 4 3 3 4 4 6 7 7 8 8 8 8 8 8 8 8 8 7 6 5 4 4 4 4 4 5 2 2 3 2 5 7 6 5 4 5 5 6 7 7 8 7 3 3 4 5 5 4 3 3 4 4 3 3 4 4 4 6 3 3 6 7 5 4 6 2 2 3 3 3 1 3 3 1 3 4 1 2 5 3 1 6 11 12
7 7 5 4 5 4 3 4 4 5 5 6 7 7 8 8 8 8 8 8 7 7 6 4 4 4 4 3 3 3 2 4 1 4 7 7 6 3 3 4 6 6 6 7 6 5 3 1 3 5 4 3 4 4 4 4 2 2 4 3 5 4 2 3 5 5 4 4 7 3 3 2 3 2 1 6 5 4 7 7 7 8 9 8 4 5 10 11
7 6 5 5 4 4 4 5 5 4 4 5 6 7 7 7 8 7 7 7 7 6 5 4 4 4 3 3 2 3 4 5 2 7 9 7 5 2 2 5 5 5 6 6 4 4 4 4 6 6 5 3 5 5 2 3 2 3 2 2 5 5 2 4 5 3 3 4 5 5 4 3 2 1 3 8 6 5 6 7 8 8 9 10 7 7 9 10
7 6 5 5 4 4 5 5 5 5 5 5 6 7 7 7 7 6 7 6 6 5 4 4 4 3 3 2 2 1 4 1 3 7 9 8 5 1 2 4 5 5 5 4 4 4 4 5 7 5 4 3 3 3 1 5 3 3 1 1 2 3 2 3 3 3 5 6 5 5 3 2 3 1 2 7 7 6 4 5 6 7 10 12 9 8 7 8
7 6 5 5 5 4 4 5 6 6 6 6 6 6 7 6 6 6 6 5 5 4 4 4 3 3 2 2 1 3 4 2 4 8 10 8 5 2 2 4 3 4 3 4 5 4 5 7 6 3 4 4 0 2 2 5 5 6 1 1 1 4 3 3 3 4 6 6 6 4 3 3 4 3 1 4 6 3 4 2 8 11 13 13 9 7 7 7
8 7 6 5 5 5 4 5 6 6 5 6 6 6 6 5 5 5 5 5 4 4 4 4 3 2 1 0 2 4 2 3 4 10 11 8 6 3 2 4 2 3 4 7 5 3 4 6 4 4 4 2 2 2 3 4 5 5 2 2 1 2 3 1 3 3 5 4 3 5 4 4 5 3 1 5 5 1 3 6 10 11 11 9 7 6 7 7
8 7 7 6 5 5 5 4 5 6 5 5 6 6 6 5 5 5 5 5 4 4 4 3 3 1 1 2 5 3 3 2 5 11 11 9 6 3 3 2 2 3 6 8 5 4 4 2 3 4 4 2 3 2 2 2 1 1 4 3 1 2 4 1 2 3 3 2 2 5 3 4 2 1 2 5 5 4 4 7 6 8 7 5 5 6 8 8
9 8 7 6 5 4 3 2 3 4 4 4 5 5 5 5 5 5 5 5 4 4 3 3 2 1 2 3 6 1 4 2 6 12 11 9 6 4 3 1 2 3 4 6 7 7 4 4 4 4 6 3 3 2 1 2 1 2 4 2 1 2 5 1 3 3 2 2 3 5 5 3 3 1 3 5 6 6 6 6 4 7 6 5 5 5 8 8
9 8 8 7 6 4 3 3 2 2 2 3 3 4 5 4 4 4 5 5 4 4 3 3 2 1 1 4 5 3 3 1 6 10 10 9 6 4 2 1 1 3 4 6 7 7 5 6 6 5 2 2 2 3 2 1 2 1 2 1 3 5 5 1 2 3 1 2 5 7 4 2 2 1 6 6 6 6 8 7 4 6 6 5 5 4 7 8
10 9 8 7 7 5 4 3 3 2 2 2 3 4 4 4 4 4 5 5 4 4 3 3 2 3 2 4 3 5 2 1 6 9 10 8 5 4 2 0 1 3 2 4 5 6 6 4 7 5 0 3 2 2 1 2 2 2 4 2 6 7 4 2 3 4 3 2 5 6 1 4 2 6 7 3 6 6 7 7 5 6 5 5 5 4 5 7
10 9 8 8 7 6 5 4 3 2 3 2 1 2 3 4 4 4 5 5 4 4 3 3 3 3 3 1 3 4 3 3 6 8 9 7 6 4 2 2 2 4 3 5 5 6 7 3 6 6 2 5 2 0 2 3 3 1 3 2 4 7 5 2 1 1 4 3 3 4 1 6 7 8 6 2 8 7 6 7 6 5 5 4 4 4 4 5
10 9 9 8 7 6 5 4 3 3 3 2 1 1 2 4 4 4 5 5 5 4 3 4 3 3 3 2 3 2 5 4 5 8 8 8 7 5 2 2 3 4 5 6 6 6 6 4 8 7 3 4 1 1 4 6 3 1 1 2 3 2 4 5 1 4 6 2 1 4 2 7 8 8 5 5 8 9 9 8 6 5 5 5 4 4 4 5
10 8 7 6 6 5 4 3 3 3 3 2 2 1 3 4 4 4 5 5 5 4 4 4 4 4 2 3 3 1 5 5 6 8 8 8 7 5 3 4 4 5 5 5 6 6 6 5 7 5 1 2 3 4 4 4 4 3 1 3 3 1 5 7 2 6 5 0 3 6 2 7 8 8 5 6 7 8 9 7 7 6 6 6 4 5 4 4
9 7 5 5 5 4 4 4 3 3 3 3 2 2 4 4 4 5 5 5 5 5 4 4 3 4 2 2 2 1 4 4 6 9 9 8 6 4 5 6 4 5 5 5 6 6 7 7 4 3 1 2 5 5 3 4 4 4 1 3 2 1 4 5 2 3 2 2 1 2 2 4 4 5 3 5 7 7 7 7 8 7 7 6 5 4 4 4
10 8 6 6 5 5 5 5 4 3 3 3 1 4 4 4 4 5 6 7 7 5 5 4 3 3 0 1 1 3 3 5 7 10 10 8 6 5 7 5 5 6 6 6 5 4 7 6 1 1 3 3 3 5 3 2 4 4 2 1 4 2 2 3 4 3 1 3 2 2 3 6 6 4 2 5 6 7 8 9 9 8 6 6 5 5 5 5
10 9 7 6 6 6 6 6 5 3 2 1 4 6 6 6 5 6 9 10 9 7 5 3 3 2 3 3 3 2 3 6 8 11 11 9 7 7 6 4 5 7 6 5 4 3 4 4 2 1 3 3 2 5 3 4 3 3 2 1 3 2 2 4 4 2 3 2 3 3 4 10 13 9 5 6 7 8 10 9 7 7 7 6 6 6 6 6
11 9 8 7 6 6 6 6 5 3 2 3 8 10 9 7 6 6 8 8 5 4 1 3 3 3 3 3 2 3 6 8 9 10 10 9 8 7 7 6 6 7 5 2 2 2 1 3 4 2 1 2 4 6 7 8 6 6 5 4 4 3 3 5 5 5 4 2 4 7 7 10 12 12 8 7 7 8 10 8 6 6 7 7 7 6 7 7
12 11 9 7 7 6 6 6 6 4 3 6 11 11 7 5 4 1 1 2 4 4 2 4 5 4 1 1 4 9 9 7 5 7 9 10 11 9 5 5 6 6 3 3 1 1 3 4 2 4 7 8 9 9 6 5 6 6 5 4 4 4 4 5 4 6 2 3 6 8 8 10 11 12 11 5 5 8 10 9 9 8 8 8 9 9 9 8
13 12 11 9 7 6 6 6 5 5 6 10 12 7 3 4 3 1 3 4 8 6 2 1 1 1 1 2 9 12 7 3 2 4 10 11 12 9 1 3 5 2 1 3 3 2 5 4 7 9 9 8 7 7 6 5 5 5 5 2 2 3 5 7 4 5 2 3 6 5 5 10 10 11 11 4 5 10 12 12 13 12 10 9 10 11 9 6
14 13 12 10 8 7 6 6 5 7 9 12 9 3 1 3 4 2 2 1 9 10 7 1 2 3 3 2 10 9 4 3 1 3 10 9 7 6 1 4 5 4 1 2 3 2 2 4 11 9 4 5 3 4 6 4 3 3 3 2 3 3 4 6 4 4 2 2 4 5 5 9 10 10 11 8 9 11 11 13 14 13 12 11 11 11 9 7
15 14 12 10 9 8 6 6 6 8 10 11 8 4 2 2 4 3 2 1 5 5 5 5 4 5 2 1 8 8 2 5 4 5 11 10 4 4 5 5 5 4 3 4 5 4 3 6 10 6 7 7 4 4 7 3 1 2 3 3 3 3 2 4 5 4 2 1 2 5 6 8 9 9 11 11 9 8 8 11 12 11 12 12 12 11 11 12
14 14 13 11 10 8 6 6 7 7 11 11 10 9 6 6 5 3 1 1 3 4 3 7 6 5 6 4 9 11 2 4 5 6 14 12 5 3 5 6 5 5 5 8 8 6 6 6 2 6 7 7 5 4 6 5 2 4 5 5 4 4 6 6 4 4 3 3 3 4 7 7 6 8 10 6 3 6 7 7 10 9 9 8 7 9 10 11
14 13 13 13 10 8 8 9 7 8 10 9 12 13 10 8 6 4 2 2 3 5 3 4 4 6 11 8 11 10 1 2 4 8 16 15 9 4 3 3 4 5 8 7 5 5 8 5 4 7 4 6 7 4 5 7 4 5 5 9 10 8 8 5 2 5 4 4 4 4 4 7 4 4 9 5 4 7 4 5 11 9 6 6 7 8 9 9
17 14 13 14 11 11 11 7 8 10 8 7 11 13 12 9 6 5 4 3 4 4 1 4 4 8 12 8 9 7 2 4 4 8 16 16 10 5 3 2 2 4 7 5 3 3 5 3 5 7 6 6 6 4 6 8 5 3 5 9 10 7 5 4 2 2 1 4 3 3 0 7 6 4 8 5 5 9 7 7 11 7 5 7 8 7 8 9
21 18 15 14 14 17 12 4 9 11 5 6 11 16 13 10 7 4 4 4 5 3 4 3 1 7 10 9 12 9 2 5 2 6 11 12 8 3 4 5 2 3 4 4 2 3 4 3 3 6 6 6 5 4 6 8 8 3 4 4 7 7 6 5 5 3 3 3 4 3 3 4 8 6 6 4 5 10 12 13 10 6 7 8 7 7 9 10
23 22 19 16 18 22 12 4 13 13 3 3 13 19 14 11 8 4 4 0 4 2 4 1 1 5 4 7 11 7 2 3 5 3 3 7 6 3 3 8 7 7 5 6 5 4 4 6 7 7 5 4 6 5 7 10 6 5 2 5 6 6 5 4 5 2 1 2 5 2 3 3 8 6 3 4 3 9 14 14 9 6 8 8 7 8 9 9
24 25 24 18 18 21 11 4 12 14 6 8 16 20 16 11 6 4 4 3 3 1 2 1 3 2 3 6 6 2 2 2 2 2 2 4 4 3 3 7 5 7 4 4 6 3 1 5 8 8 5 6 4 1 7 10 4 3 5 7 6 6 5 5 4 3 3 2 5 5 5 3 6 4 1 2 3 9 11 10 6 5 8 8 8 8 8 8
27 27 27 22 21 24 17 9 13 14 9 10 17 20 15 8 4 4 2 4 2 0 0 2 2 2 7 10 2 2 3 2 1 2 3 1 1 4 1 3 6 5 1 3 2 3 2 1 2 4 4 5 4 3 2 4 5 6 6 7 7 6 5 4 3 4 2 5 6 8 9 7 5 4 4 4 4 7 7 6 6 5 5 7 7 7 8 8
31 29 30 29 26 28 20 11 18 18 11 12 18 18 11 4 3 5 5 3 0 1 2 1 0 4 12 13 6 2 3 2 1 5 4 1 2 3 0 2 4 3 1 4 4 3 4 1 1 1 2 4 6 5 3 3 4 6 4 5 4 4 4 4 4 4 0 6 5 4 5 6 7 6 4 6 6 6 6 5 6 6 5 7 7 6 7 7
35 32 33 33 30 31 22 9 19 22 13 16 20 12 6 3 0 5 5 0 1 3 5 4 3 6 10 9 6 6 5 2 2 6 6 4 5 6 5 5 5 3 2 6 3 3 2 4 3 2 1 4 6 4 4 4 3 4 5 6 4 2 3 3 3 0 3 6 3 2 1 3 8 7 7 11 11 9 8 7 7 7 7 7 7 7 7 7
38 35 36 37 33 35 28 12 16 21 16 19 16 4 3 5 6 10 8 3 2 2 3 3 2 7 11 7 4 5 4 2 5 4 3 5 5 7 6 4 5 4 3 5 3 0 3 5 2 0 2 3 8 7 3 1 3 5 6 6 5 2 1 2 3 2 4 5 2 1 1 3 5 5 11 17 14 8 6 7 7 7 7 7 8 8 7 8
38 37 38 40 37 37 32 18 17 24 22 17 8 3 5 8 9 11 12 7 1 2 2 3 5 6 8 5 4 6 4 3 6 5 3 5 5 7 6 6 6 3 3 3 3 5 5 5 4 6 3 5 10 8 5 6 5 4 4 5 6 5 4 4 4 3 4 3 3 2 1 4 3 3 8 11 8 6 4 5 6 6 6 5 6 7 8 9
39 40 40 38 36 36 35 23 19 28 26 13 5 5 9 10 8 10 10 6 2 2 3 3 7 7 5 2 2 6 4 2 5 5 4 6 6 7 7 8 10 6 4 4 2 3 5 7 6 3 1 7 10 4 5 7 3 2 2 4 3 5 5 2 3 5 2 2 3 2 3 5 4 5 7 5 6 7 5 5 4 3 2 4 6 7 9 9
41 40 37 36 35 37 37 28 23 30 24 11 7 8 9 10 7 6 6 4 4 5 6 3 4 5 6 2 2 6 2 2 5 4 3 4 3 7 8 8 11 12 9 6 3 2 3 5 4 3 2 3 4 2 3 3 3 2 2 4 4 4 6 3 2 1 3 2 4 3 5 5 3 7 8 4 7 8 6 6 5 2 2 6 7 7 8 9
32 30 26 30 35 39 40 32 26 27 17 8 11 11 9 9 4 3 3 2 4 8 9 4 3 5 7 4 4 7 3 2 4 5 4 3 3 7 9 5 6 15 13 5 2 3 4 3 4 2 1 2 1 2 4 3 3 5 4 6 2 2 3 3 2 3 3 3 5 2 6 5 2 5 4 1 5 10 10 8 5 3 5 7 7 7 8 9
21 17 14 25 36 39 40 38 30 22 9 5 11 11 8 9 3 3 3 2 5 8 7 6 5 5 7 6 5 7 6 4 6 6 4 4 5 7 11 6 5 14 14 5 1 3 4 2 4 1 2 3 4 3 2 5 2 5 4 4 4 2 1 2 2 2 1 3 5 2 4 4 6 6 1 3 8 11 12 8 5 7 9 8 7 7 8 7
15 10 5 20 36 37 40 41 29 13 6 7 10 8 7 9 6 2 4 3 3 6 6 6 4 3 5 7 5 6 8 7 8 7 5 5 6 6 11 9 5 9 12 8 5 3 3 3 4 2 1 2 3 2 4 2 2 3 2 2 2 2 3 3 3 3 3 2 4 3 3 4 6 6 7 9 11 11 10 7 8 11 10 8 7 8 8 9
7 4 2 13 32 39 41 36 18 6 6 8 10 7 5 7 8 7 5 3 1 2 4 4 4 4 5 5 4 5 7 6 8 8 5 6 6 5 8 9 5 6 9 10 7 2 2 3 3 3 3 1 2 4 8 9 6 3 3 4 3 1 2 1 1 2 4 3 2 3 6 6 4 5 10 11 10 11 9 7 9 9 7 8 9 9 9 10
3 2 2 10 30 40 36 21 8 5 6 6 10 9 5 3 6 9 8 2 0 1 1 2 4 5 5 5 3 4 5 4 6 6 4 6 7 5 6 9 9 8 7 7 8 5 3 3 3 2 2 4 5 4 5 7 6 6 6 8 8 6 4 2 3 2 3 3 4 3 7 9 4 3 6 7 6 7 7 6 8 7 6 8 8 9 10 10
2 3 2 14 35 39 23 9 6 6 5 5 7 7 4 2 2 7 9 6 3 2 0 1 3 4 5 6 6 5 6 5 6 6 5 7 9 6 6 8 11 13 10 7 8 6 4 3 3 3 4 5 6 4 2 4 2 2 3 4 5 5 5 6 6 4 2 2 2 3 4 9 3 1 4 4 4 4 3 5 7 7 6 7 8 9 9 9
3 3 2 18 39 34 14 6 8 7 6 4 2 3 4 2 1 4 8 10 7 3 2 2 2 4 4 4 5 7 8 6 8 10 6 5 8 6 4 7 10 12 9 4 3 3 3 3 3 2 2 2 4 4 2 1 2 2 2 3 6 8 7 5 5 4 4 4 3 2 5 8 3 1 4 4 3 3 4 5 7 7 4 6 8 8 8 8
3 2 2 17 38 29 10 6 8 7 7 5 4 7 5 2 4 6 7 10 9 5 4 4 3 3 3 3 5 7 10 7 8 12 8 4 5 3 3 9 9 9 7 4 4 6 5 4 4 2 1 3 4 3 2 1 2 3 4 5 8 10 7 2 1 2 3 7 9 6 9 7 3 3 3 3 4 5 6 6 6 7 5 5 7 7 8 8
2 2 1 12 26 18 6 5 7 8 10 9 9 12 10 4 5 7 6 7 8 6 6 4 3 3 2 2 3 5 9 9 7 8 7 4 3 2 2 9 10 9 6 1 1 6 6 5 6 6 7 9 8 6 5 3 3 2 4 7 9 10 11 6 2 4 6 6 10 9 11 6 3 5 5 4 4 5 8 6 5 6 6 5 6 7 8 8
3 3 1 5 9 7 5 3 4 6 10 11 8 9 13 10 4 4 5 5 6 7 5 1 3 4 2 3 4 5 8 10 6 4 5 6 4 2 2 5 8 9 5 3 2 4 3 3 9 12 12 14 13 7 5 9 7 7 9 12 13 13 14 10 6 8 6 4 7 13 12 8 7 6 5 6 5 6 8 6 5 6 6 6 7 7 7 8
3 4 4 5 3 4 6 6 5 6 8 10 6 5 12 14 6 2 5 6 5 6 5 1 3 7 7 8 8 6 6 8 7 5 6 5 2 2 2 1 5 7 4 2 3 5 3 3 10 15 16 19 15 7 9 13 13 15 14 14 15 14 14 13 14 12 7 5 11 12 8 10 15 10 8 9 8 8 9 9 8 7 6 6 6 6 7 8
4 3 4 6 4 4 7 9 10 10 10 10 6 4 9 13 10 6 7 6 4 5 4 2 7 13 14 12 10 6 5 6 8 9 7 3 2 1 1 1 3 4 3 2 3 4 4 6 11 13 16 19 11 5 9 11 10 12 15 16 17 17 18 20 21 16 9 9 18 8 10 16 19 10 11 13 12 12 11 9 7 5 6 6 7 8 9 9
3 1 2 5 6 6 7 9 12 13 13 11 8 7 9 13 14 12 7 4 4 8 10 10 15 18 16 13 10 7 7 8 9 10 8 6 5 4 2 3 3 3 5 3 2 1 4 8 11 10 12 19 11 5 8 9 6 7 12 15 17 20 23 24 22 19 14 17 20 8 8 20 14 8 12 12 10 11 8 5 5 6 7 8 9 9 10 10
2 0 1 4 5 4 4 6 8 9 10 11 11 11 12 14 17 14 9 8 9 10 12 16 20 17 16 16 12 11 12 13 14 11 8 8 7 5 5 5 3 4 6 6 2 1 3 5 5 4 7 15 11 6 6 8 8 7 9 12 17 19 20 19 17 15 14 17 19 11 15 20 8 9 11 7 4 5 6 6 7 7 7 8 9 10 11 11
4 1 2 2 5 6 5 4 6 6 6 7 8 9 12 17 19 14 10 11 13 11 13 21 24 15 11 13 14 17 21 19 15 10 8 9 7 4 4 3 4 5 6 6 3 3 4 3 1 4 5 12 9 8 7 5 4 5 10 17 20 16 13 13 13 14 14 17 17 13 16 18 7 7 9 6 6 8 9 9 9 8 8 10 11 12 12 13
5 1 1 1 3 6 6 5 6 7 7 8 9 9 11 14 14 12 7 7 13 15 14 20 22 12 7 11 17 22 22 16 11 5 5 5 3 4 3 3 5 7 6 4 2 2 5 5 2 5 8 11 7 8 7 4 3 6 14 18 18 13 10 12 14 16 17 16 14 12 17 20 8 6 7 6 7 9 9 10 10 9 9 10 12 13 14 15
Wind_Direction
194 206 216 215 229 215 205 203 192 192 195 198 201 204 207 208 212 210 210 210 212 219 220 228 248 270 287 304 316 334 333 292 200 181 180 159 127 109 84 55 32 15 12 16 23 43 23 18 7 12 59 69 8 344 5 18 50 55 79 88 116 166 177 174 181 195 172 179 208 232 162 132 155 225 164 32 34 53 33 23 355 359 24 59 93 111 133 147
191 202 209 216 216 207 210 206 196 195 196 197 200 203 206 208 210 209 208 209 213 218 221 231 250 267 287 304 317 345 348 18 119 163 177 162 134 107 86 51 27 14 12 20 25 32 35 350 341 12 48 46 351 347 12 11 53 81 108 93 180 198 190 187 177 188 181 166 182 205 155 151 170 171 143 136 326 11 64 350 353 6 7 52 81 109 137 148
191 202 206 213 202 194 211 201 198 202 198 196 198 200 203 206 206 206 206 208 212 216 222 232 247 267 286 297 320 350 3 78 76 158 169 154 137 111 82 42 21 16 18 18 15 20 33 307 333 29 51 52 1 1 31 13 39 122 108 88 223 212 210 218 183 192 220 167 143 151 163 175 193 160 137 173 182 258 214 215 186 258 229 209 123 111 134 147
192 205 208 213 195 189 204 194 197 199 197 198 198 199 201 203 203 205 206 207 212 216 222 232 250 265 281 296 327 347 42 70 36 192 164 152 139 119 59 29 14 17 17 17 15 15 30 45 52 55 60 47 342 17 46 354 29 96 97 148 205 173 141 211 195 200 214 150 139 139 117 165 213 158 125 144 147 269 247 216 191 203 199 188 199 131 132 141
194 204 206 208 198 198 198 193 196 186 189 200 197 199 199 202 205 205 206 209 211 212 221 233 250 264 280 301 327 334 56 67 228 185 164 162 149 133 25 14 3 11 15 19 20 29 51 67 64 49 53 47 348 26 31 315 66 68 35 192 185 138 125 206 201 190 153 108 104 120 139 178 184 127 144 150 175 236 239 234 210 193 177 170 170 147 132 133
195 198 199 205 204 208 199 191 191 187 195 199 196 197 198 202 203 204 208 210 210 211 221 229 245 265 281 306 321 347 91 93 232 178 175 173 159 192 358 352 353 6 10 38 44 56 58 43 55 50 46 54 11 48 343 312 50 93 349 327 202 177 166 193 188 185 141 108 126 161 186 138 97 289 186 170 207 237 271 259 199 161 153 152 144 141 132 132
197 195 195 201 200 210 208 193 190 193 198 196 197 196 198 199 196 203 206 207 209 207 217 227 242 257 287 316 335 50 91 247 231 178 185 179 177 219 327 329 348 4 7 59 47 74 73 43 67 109 76 67 134 95 344 321 36 89 121 317 202 193 208 194 156 166 143 141 190 176 128 139 162 212 149 201 237 283 335 32 122 125 133 138 133 135 136 136
197 195 195 198 202 211 209 201 195 193 192 194 194 191 192 190 188 197 200 205 203 201 216 222 232 242 298 301 102 48 6 262 197 181 188 185 193 221 307 319 352 20 54 56 40 129 95 55 103 146 84 78 160 113 343 344 29 69 141 236 199 199 251 234 106 147 162 171 186 125 136 209 197 172 153 229 233 47 51 81 103 113 118 128 131 136 137 134
199 200 200 200 205 213 205 201 196 188 187 195 191 188 188 182 184 191 197 201 194 201 209 208 228 230 198 123 91 71 270 254 183 184 187 189 198 227 284 319 7 24 60 52 43 110 102 101 179 173 145 163 122 91 338 45 7 164 147 198 203 331 317 354 149 201 194 203 135 131 220 269 252 198 254 228 185 139 101 93 102 113 116 129 137 148 146 142
201 204 208 209 207 212 209 212 204 183 179 192 189 186 180 172 179 184 191 195 187 196 194 192 214 162 162 123 87 114 259 271 195 187 184 191 200 231 265 313 10 27 59 53 48 67 93 161 173 145 133 125 93 76 345 93 155 169 130 174 134 342 317 134 201 238 200 240 186 180 235 283 318 267 251 240 178 147 116 111 121 126 138 150 144 156 155 157
203 205 210 215 212 206 205 227 239 196 184 200 190 181 169 157 168 179 189 187 181 180 177 180 173 158 157 101 112 195 257 244 198 187 184 190 199 230 236 247 357 41 59 61 61 64 88 144 139 120 107 97 89 37 358 117 125 92 84 289 335 340 307 251 241 250 173 227 189 173 222 285 354 232 232 230 175 154 137 143 157 148 159 160 151 157 160 169
207 208 210 214 218 215 208 221 227 220 226 223 198 173 155 152 166 183 187 177 174 169 166 164 152 172 123 70 146 210 246 205 196 185 184 187 191 211 194 181 30 44 40 68 75 69 71 117 112 93 69 135 117 34 99 122 94 71 56 340 312 352 347 265 260 240 176 192 184 153 283 289 234 225 249 223 155 147 143 159 177 172 174 165 158 156 162 174
213 211 213 213 217 217 215 222 231 252 254 247 219 152 145 162 168 182 183 172 168 161 162 161 160 160 120 56 226 213 224 204 195 186 180 184 183 190 176 142 86 55 67 87 87 70 58 64 98 100 116 109 122 165 101 50 57 77 53 60 322 358 352 279 325 213 169 174 190 148 280 276 251 248 262 186 151 141 154 184 193 186 185 177 173 164 173 181
220 215 215 217 222 226 234 235 231 257 264 272 287 181 170 167 170 175 173 169 163 157 160 155 159 142 116 239 243 227 236 218 198 192 181 183 177 170 156 125 112 82 80 84 79 63 56 73 91 95 95 85 132 106 40 12 24 38 23 45 15 358 283 290 330 148 159 187 107 116 203 266 269 272 253 187 166 158 179 202 198 196 196 190 189 178 187 198
230 226 220 229 240 254 277 270 250 274 296 308 302 238 183 169 175 168 163 166 155 151 154 148 154 127 80 280 270 262 240 221 199 192 180 179 172 161 149 127 118 102 86 79 81 69 62 81 80 73 21 17 56 69 26 355 12 33 355 309 348 176 270 305 285 159 156 235 50 104 201 270 271 276 253 182 176 177 190 205 202 206 202 194 199 188 196 213
240 242 236 244 258 275 287 291 290 305 315 304 285 203 164 164 170 158 156 150 137 138 135 132 136 117 93 275 276 268 231 210 192 186 175 170 168 156 142 124 97 93 90 81 91 79 55 60 60 57 112 44 65 82 46 13 350 358 66 251 273 177 283 318 303 222 169 128 18 116 216 273 278 294 292 179 184 190 201 217 213 211 207 199 198 191 193 205
239 250 255 260 273 284 284 293 301 316 319 292 199 150 142 145 154 146 139 127 121 116 110 128 129 102 111 245 252 263 211 182 182 178 171 162 157 153 139 111 80 90 89 75 82 64 33 40 49 353 47 50 85 94 58 353 299 315 20 249 244 197 234 301 307 284 92 110 218 215 226 253 265 289 273 199 194 193 210 224 218 213 210 200 194 195 195 195
233 247 255 259 269 275 279 288 292 301 306 236 144 134 122 119 131 135 134 124 109 89 82 106 102 79 270 239 202 216 160 161 168 168 166 159 152 145 126 100 94 90 68 44 44 39 15 21 56 49 24 12 56 98 128 223 208 199 191 193 257 244 219 255 286 248 133 102 215 197 241 258 268 274 237 210 198 199 220 227 221 215 209 203 198 198 199 198
231 240 246 254 258 262 271 279 282 280 258 161 135 125 112 103 108 125 136 130 119 112 155 208 146 137 223 236 168 117 118 141 153 161 160 153 149 129 100 92 92 85 80 61 14 21 59 50 61 82 231 229 192 167 187 203 166 160 177 151 175 219 252 238 254 259 192 161 225 213 227 247 259 266 252 223 199 210 234 239 232 219 210 208 203 203 201 201
233 235 242 248 245 253 266 277 276 246 202 159 139 123 112 101 76 62 183 186 200 166 159 212 178 145 181 267 136 120 117 121 133 161 158 157 148 122 80 59 56 57 97 154 173 40 88 102 167 210 212 202 200 197 181 163 129 113 129 136 176 195 269 258 255 291 244 165 243 228 228 248 252 260 261 231 187 221 238 239 236 220 212 210 205 207 201 199
234 233 238 237 237 247 256 274 264 216 190 165 148 130 151 157 122 229 235 257 254 233 224 285 149 192 294 160 155 141 123 84 37 156 160 161 148 135 85 47 82 65 259 174 150 50 78 133 220 227 210 192 196 190 147 116 103 90 122 170 252 205 252 258 240 303 330 173 261 266 252 259 254 258 265 224 180 226 228 224 232 222 215 213 206 208 197 190
232 232 233 229 232 237 248 264 230 201 190 173 164 153 202 166 118 100 149 232 269 242 219 263 360 278 276 162 172 157 97 86 40 204 170 156 150 166 167 85 132 181 239 127 108 44 69 218 237 230 161 123 115 146 139 126 115 97 110 147 257 247 267 276 277 320 4 176 268 308 290 266 260 260 261 238 216 233 227 218 227 220 213 213 207 202 186 179
226 226 226 224 224 225 241 236 198 194 189 178 183 188 145 123 110 68 99 121 294 260 201 204 223 234 235 222 192 176 120 153 174 220 185 156 148 182 141 123 152 144 145 171 157 147 171 247 243 195 135 122 85 93 121 116 130 162 145 152 233 252 258 275 292 325 360 186 275 308 296 271 265 263 258 247 235 249 243 229 233 223 216 216 206 198 184 182
218 217 219 216 213 216 219 193 177 197 197 191 206 196 144 119 125 90 83 42 296 278 227 204 201 193 193 195 182 177 191 183 166 194 185 160 131 160 154 150 137 124 186 196 176 179 215 250 218 130 144 148 122 105 129 144 244 241 190 181 210 223 217 232 286 326 342 355 17 348 308 279 260 256 258 272 307 281 256 240 247 236 226 218 193 191 189 185
209 209 211 205 205 203 183 169 183 206 197 203 218 195 147 130 129 106 96 23 290 286 297 210 198 202 195 171 165 170 148 234 214 188 179 167 145 142 170 154 126 174 205 188 173 226 249 242 119 111 136 144 137 157 175 171 207 277 226 202 211 213 221 236 337 8 353 328 349 22 314 283 288 263 260 287 317 275 254 234 247 240 223 205 187 190 185 183
210 206 200 197 196 178 165 176 207 199 188 216 212 180 152 146 134 119 100 37 284 269 252 182 180 191 187 162 152 140 79 259 242 162 167 173 163 128 146 159 83 195 193 161 173 240 245 230 119 121 138 147 155 201 219 177 153 279 249 209 208 194 194 208 138 64 272 262 302 49 166 276 295 256 250 275 289 277 275 254 248 238 217 209 199 191 179 178
214 208 194 192 188 172 164 181 187 174 182 236 194 168 161 153 138 129 89 22 281 208 149 194 195 168 173 165 153 133 183 236 120 138 164 174 178 87 132 175 129 196 174 127 227 247 185 180 118 123 121 135 164 217 220 163 139 243 260 176 172 170 182 184 152 171 233 259 316 25 121 269 286 257 253 296 300 286 279 264 252 227 219 216 202 191 183 183
216 210 197 193 187 179 172 148 165 171 186 196 169 165 161 152 145 114 95 301 276 138 134 227 153 137 139 156 153 133 220 195 117 187 180 154 179 56 146 197 175 184 178 147 213 264 156 173 182 167 144 164 192 212 184 152 148 249 225 121 134 150 156 129 118 146 352 355 302 289 134 247 275 266 297 348 282 265 267 264 257 226 219 212 203 196 185 185
215 209 203 197 187 186 187 161 177 190 185 143 160 167 155 149 151 76 85 204 253 96 113 126 125 107 95 142 160 96 39 44 122 222 48 131 180 55 165 202 154 165 197 176 206 252 145 191 190 163 164 198 199 205 173 160 175 208 130 95 79 78 79 80 93 96 46 328 247 209 170 230 273 260 252 25 244 246 257 267 269 245 227 206 200 197 183 182
215 211 205 193 185 190 197 217 209 195 174 154 162 163 147 139 131 95 155 224 219 155 70 125 158 162 141 148 180 4 83 36 32 110 56 116 89 32 146 155 91 127 228 323 247 246 304 269 183 151 174 186 132 83 147 153 149 142 107 69 53 36 39 48 46 72 46 282 240 200 186 199 268 275 205 206 222 230 248 278 291 279 244 210 201 193 183 181
215 212 205 194 190 189 187 222 213 187 170 165 158 150 138 94 72 146 199 235 293 177 129 136 181 141 154 160 172 191 120 51 140 145 140 145 97 53 68 116 81 87 330 296 286 308 333 339 248 225 161 127 96 72 34 58 111 112 91 82 70 351 11 24 358 47 163 256 248 232 198 189 237 260 240 247 253 236 228 248 265 265 243 217 203 191 183 179
215 213 206 198 197 191 184 207 197 180 166 160 154 145 135 98 126 210 218 133 248 208 159 167 198 162 164 165 166 170 144 115 179 163 154 149 165 185 195 186 160 116 247 240 252 337 290 235 266 317 194 141 112 87 37 20 52 88 104 112 105 325 2 360 311 26 231 252 252 256 175 206 239 250 258 262 261 246 226 227 240 243 237 218 199 188 179 172
215 212 206 200 200 196 192 194 184 173 161 157 155 128 124 160 208 217 215 196 218 224 135 126 144 157 158 159 175 165 134 163 180 171 161 143 172 209 226 217 174 139 191 196 168 188 270 293 306 132 270 190 154 155 156 184 174 152 147 142 142 143 82 282 270 270 265 267 284 262 188 241 266 257 242 244 251 248 224 228 237 236 233 216 194 181 173 175
218 211 205 201 202 202 196 190 178 169 159 153 150 109 152 192 216 207 210 216 219 19 61 108 106 137 159 167 195 168 147 216 176 149 155 145 166 213 227 232 207 137 102 146 166 182 216 279 212 177 221 190 180 186 163 139 158 182 156 137 154 158 163 216 219 220 256 279 302 294 196 201 212 258 247 243 265 281 256 248 246 247 242 205 175 168 172 181
221 210 205 200 200 202 196 189 176 166 158 146 147 168 179 203 218 211 210 203 156 41 28 79 101 130 190 272 264 185 159 215 178 141 161 171 186 201 197 210 202 168 135 175 208 167 198 262 245 226 269 166 179 195 112 108 135 227 114 112 174 184 162 180 194 178 185 305 295 236 224 219 209 272 276 263 286 286 284 288 268 260 231 154 162 177 180 184
217 206 202 197 197 199 194 188 177 169 161 143 158 187 202 208 206 207 199 158 156 138 104 81 85 136 201 236 252 216 172 108 156 154 195 203 223 208 200 212 196 185 182 177 187 153 172 273 292 345 358 150 175 185 113 130 173 155 137 170 204 176 133 126 257 51 84 269 268 197 242 288 313 281 269 249 275 280 283 281 256 232 173 166 184 190 186 187
208 199 197 197 197 197 192 188 178 172 167 153 175 190 210 217 193 144 177 134 143 142 131 168 186 160 187 194 208 206 185 101 157 177 193 193 250 214 205 235 194 192 198 169 180 198 159 256 310 53 178 278 336 125 65 27 123 127 182 201 155 69 88 109 242 348 47 249 271 217 239 273 261 270 300 83 255 265 262 254 237 220 200 197 204 194 192 191
203 194 201 206 201 194 189 185 178 172 166 166 194 205 212 216 197 117 156 123 127 146 162 199 196 166 178 190 200 189 178 174 175 187 185 185 243 208 183 209 209 197 201 165 193 239 142 216 305 36 186 303 2 106 72 359 60 124 184 185 113 133 204 112 170 235 191 246 283 276 248 244 208 223 260 171 211 240 251 240 224 234 216 202 208 196 191 188
199 190 221 213 203 194 186 183 178 174 167 174 201 219 218 217 219 170 158 139 133 160 186 207 188 157 181 180 168 169 186 189 169 180 189 185 233 214 176 191 208 194 189 168 185 220 130 199 264 335 288 321 9 154 181 212 22 53 102 130 90 137 175 160 163 169 166 221 278 295 282 251 221 203 190 201 208 218 235 231 226 234 219 197 200 192 188 190
182 191 294 203 198 192 183 179 179 185 177 183 201 206 204 216 224 223 203 159 138 182 196 213 174 161 183 176 160 173 190 191 172 185 205 190 216 243 193 182 168 168 175 178 194 182 110 203 236 314 326 203 196 214 191 182 178 162 155 166 178 114 107 165 200 131 137 171 219 277 284 265 240 195 192 204 210 207 212 228 241 239 214 199 199 191 191 193
123 236 285 180 187 183 175 175 190 199 181 194 211 209 204 203 207 221 222 175 162 247 171 183 183 176 169 168 190 191 174 179 183 192 225 209 208 238 209 179 156 145 145 174 205 197 159 188 180 186 238 206 225 250 210 197 189 179 188 192 185 166 134 161 238 209 139 179 187 194 269 266 245 203 205 201 214 217 199 218 253 251 208 204 201 194 196 193
139 240 199 173 178 172 165 181 198 194 204 202 207 212 207 194 183 208 212 202 222 255 267 208 200 184 176 179 188 171 160 178 190 194 228 222 212 224 219 189 162 152 149 170 205 194 138 119 144 186 217 218 242 273 227 209 173 137 207 200 171 173 161 169 214 215 157 214 182 125 267 274 273 225 239 217 219 243 210 206 245 252 211 200 199 195 199 197
196 219 126 170 174 167 162 205 189 196 229 203 189 227 213 220 209 192 200 204 207 192 185 228 201 189 206 185 162 166 177 188 193 200 221 228 223 231 205 180 158 153 159 169 195 173 110 123 176 230 299 302 304 326 360 145 123 127 238 173 170 203 198 179 197 181 167 203 169 124 253 266 290 250 248 254 251 271 259 223 234 252 227 195 197 194 194 196
198 182 66 174 177 172 172 196 184 205 223 197 195 212 217 245 216 199 196 198 201 183 181 212 197 198 221 162 155 183 189 192 203 208 211 210 228 256 168 172 166 167 185 189 173 176 173 182 183 180 298 314 320 316 292 217 168 201 226 197 196 202 184 148 91 121 219 207 165 183 241 241 268 290 287 319 331 307 275 241 224 241 232 198 194 192 191 192
159 169 23 181 184 186 203 198 177 195 209 204 204 205 208 222 210 206 200 195 205 198 193 213 185 170 194 161 172 200 199 210 220 207 208 218 242 314 207 185 183 190 205 283 156 179 175 179 177 182 217 231 233 233 217 177 159 215 221 198 203 198 182 184 186 190 231 202 163 203 239 236 291 306 302 310 318 293 274 257 236 240 230 200 192 190 190 190
157 205 186 178 193 205 230 229 179 186 201 203 207 206 207 214 210 190 194 205 217 205 199 214 143 159 182 182 198 215 214 228 235 185 201 218 216 284 255 198 201 207 198 55 76 158 151 194 197 198 214 226 234 234 161 133 152 206 210 195 199 202 194 194 212 216 207 158 197 225 231 244 266 265 268 274 254 250 262 261 254 248 229 205 194 189 190 191
187 210 175 169 202 210 211 215 197 194 198 194 194 190 202 213 216 150 196 214 208 195 203 251 161 188 199 195 207 221 207 218 227 205 206 210 208 300 305 194 229 229 204 149 155 141 115 223 217 213 222 230 235 220 160 154 176 199 201 199 202 201 195 197 215 217 160 146 241 229 187 236 248 225 225 249 240 235 244 244 246 239 216 197 178 176 187 191
199 204 181 176 184 205 209 201 193 202 204 194 194 195 199 211 210 192 204 209 182 177 194 229 218 212 209 202 207 219 194 198 222 220 213 195 148 214 276 239 234 207 164 189 201 152 153 218 223 218 231 239 232 173 175 182 184 194 197 200 200 196 197 204 217 215 164 198 243 215 157 227 241 213 214 231 229 230 231 228 226 204 185 176 166 178 191 192
215 200 215 198 200 214 212 195 189 200 204 191 198 215 207 209 212 210 200 166 179 200 196 213 223 216 213 209 202 208 201 195 218 220 205 191 179 167 187 235 222 156 143 180 227 180 173 221 226 208 230 247 237 160 184 190 173 197 207 206 204 201 202 207 215 216 201 224 243 229 218 245 239 188 214 228 224 227 219 195 192 185 182 176 175 189 196 196
228 186 199 213 221 217 202 188 183 199 206 192 198 210 207 209 214 213 198 171 188 201 196 218 229 216 209 211 207 219 219 209 220 220 186 185 202 191 198 212 181 152 169 179 190 217 190 226 231 170 222 251 237 170 186 192 181 204 220 221 216 209 208 211 216 216 215 235 246 246 257 260 230 172 218 224 174 197 199 201 213 207 190 178 184 198 200 201
223 348 100 189 223 199 181 182 177 195 215 201 201 203 205 216 215 208 206 196 198 196 190 214 228 222 209 210 210 225 230 224 227 222 181 189 207 193 198 197 127 140 181 181 150 153 184 207 66 119 213 247 225 175 188 189 174 227 246 235 221 206 204 209 213 211 207 224 238 240 251 255 220 167 210 201 165 193 206 212 221 215 193 184 192 203 202 204
206 266 107 139 245 210 189 183 176 192 212 208 209 206 206 220 214 200 207 215 214 213 203 212 223 219 204 210 214 226 232 229 229 222 175 179 155 121 154 163 141 146 161 170 135 138 176 191 169 161 212 244 222 170 167 141 134 247 250 234 212 193 198 207 214 217 209 212 223 223 237 248 230 163 195 208 202 211 215 213 213 207 195 194 201 205 206 209